Content
SEND FEEDBACK

Daily
Averages
Monthly
Summary
United States of America

GRASS VALLEY, CALIFORNIA


Home > North America > United States > California
Elevation: 2628 feet     Latitude: 39 16N     Longitude: 121 02W

WEATHER
 
SELECT A DAY
Number of Records: 54,838;   Date Range: 9/21/11 - 4/17/14
 
SHARE

PRINT THIS DATA

[ ← Previous Day ]
WEATHER ALMANAC - JANUARY 18, 2013
[ Next Day → ]
[ °C ]   °F
Weather ElementAverageHighLow
Temperature52.3 °F60.8 °F (1:40 pm)46.4 °F (5:20 am)
Dewpoint18.4 °F28.4 °F (5:35 pm)6.8 °F (8:20 am)
Humidity27.6 %43 % (5:35 pm)14 % (10:00 am)
Barometer30.21 in30.27 in (10:00 am)30.19 in (2:00 pm)
Wind Speed0.8 mph8.1 mph (1:40 pm)
Weather ElementAverage
Visibility10 mi
Wind DirectionNNE (39.3 °)

Weather ElementTotal
Precipitation---
Heating Degree Days11.4 (Base 65)
Growing Degree Days3.6 (Base 50)
Averaged from 69 records on January 18, 2013
WEATHER CONDITIONS BREAKOUT
WIND DIRECTION BREAKOUT
WEATHER BY HOUR - JANUARY 18, 2013
[ °C ]   °F
Local TimeTemperatureDewpointHumidityBarometerVisibilityWind DirectionWind SpeedGust SpeedPrecipitationEventsConditions
12:20 AM48.2 °F19.4 °F32 %30.23 in10.0 miCalmClear
1:00 AM48.2 °F15.8 °F27 %30.23 in10.0 miCalmClear
1:20 AM48.2 °F15.8 °F27 %30.23 in10.0 miCalmClear
1:40 AM48.2 °F14.0 °F25 %30.23 in10.0 miCalmClear
2:00 AM48.2 °F14.0 °F25 %30.23 in10.0 miCalmClear
2:20 AM48.2 °F14.0 °F25 %30.23 in10.0 miCalmClear
2:40 AM48.2 °F12.2 °F24 %30.23 in10.0 miCalmClear
3:00 AM48.2 °F14.0 °F25 %30.23 in10.0 miCalmClear
3:20 AM48.2 °F12.2 °F24 %30.23 in10.0 miCalmClear
3:40 AM50.0 °F12.2 °F22 %30.22 in10.0 miCalmClear
4:00 AM48.2 °F14.0 °F25 %30.22 in10.0 miCalmClear
4:20 AM50.0 °F14.0 °F24 %30.23 in10.0 miCalmClear
5:00 AM48.2 °F14.0 °F25 %30.22 in10.0 miCalmClear
5:20 AM46.4 °F15.8 °F29 %30.22 in10.0 miCalmClear
5:40 AM48.2 °F15.8 °F27 %30.21 in10.0 miCalmClear
6:00 AM48.2 °F15.8 °F27 %30.21 in10.0 miEast (90°)4.6 mphClear
6:15 AM48.2 °F15.8 °F27 %30.21 in10.0 miCalmClear
6:40 AM48.2 °F15.8 °F27 %30.22 in10.0 miCalmClear
6:55 AM48.2 °F12.2 °F24 %30.22 in10.0 miCalmClear
7:20 AM48.2 °F10.4 °F22 %30.22 in10.0 miCalmClear
8:00 AM48.2 °F8.6 °F20 %30.23 in10.0 miCalmClear
8:20 AM50.0 °F6.8 °F17 %30.24 in10.0 miCalmClear
8:40 AM51.8 °F8.6 °F18 %30.25 in10.0 miCalmClear
9:00 AM55.4 °F8.6 °F15 %30.26 in10.0 miCalmClear
9:20 AM55.4 °F8.6 °F15 %30.26 in10.0 miCalmClear
9:40 AM55.4 °F14.0 °F20 %30.26 in10.0 miCalmClear
10:00 AM57.2 °F8.6 °F14 %30.27 in10.0 miCalmClear
10:20 AM57.2 °F10.4 °F16 %30.27 in10.0 miCalmClear
10:40 AM57.2 °F14.0 °F18 %30.26 in10.0 miCalmClear
11:00 AM57.2 °F14.0 °F18 %30.26 in10.0 miCalmClear
11:20 AM57.2 °F15.8 °F20 %30.25 in10.0 miCalmClear
11:40 AM59.0 °F15.8 °F19 %30.24 in10.0 miCalmClear
12:00 PM59.0 °F17.6 °F20 %30.23 in10.0 miCalmClear
12:20 PM59.0 °F17.6 °F20 %30.22 in10.0 miWest (280°)4.6 mphClear
12:40 PM59.0 °F17.6 °F20 %30.21 in10.0 miCalmClear
1:00 PM59.0 °F17.6 °F20 %30.21 in10.0 miNW (310°)3.5 mphClear
1:20 PM59.0 °F19.4 °F22 %30.20 in10.0 miCalmClear
1:40 PM60.8 °F19.4 °F20 %30.20 in10.0 miWest (270°)8.1 mphClear
2:00 PM60.8 °F19.4 °F20 %30.19 in10.0 miCalmClear
2:20 PM60.8 °F21.2 °F22 %30.19 in10.0 miWest (280°)5.8 mphClear
2:35 PM60.8 °F21.2 °F22 %30.19 in10.0 miCalm
2:55 PM60.8 °F19.4 °F20 %30.19 in10.0 miWNW (290°)5.8 mphClear
3:15 PM60.8 °F21.2 °F22 %30.19 in10.0 miWest (270°)5.8 mphClear
3:35 PM59.0 °F23.0 °F25 %30.19 in10.0 miWest (280°)5.8 mphClear
3:55 PM59.0 °F23.0 °F25 %30.19 in10.0 miWNW (290°)5.8 mphClear
4:15 PM57.2 °F24.8 °F29 %30.19 in10.0 miCalmClear
4:35 PM57.2 °F24.8 °F29 %30.19 in10.0 miCalmClear
4:55 PM53.6 °F26.6 °F35 %30.19 in10.0 miNorth (350°)3.5 mphClear
5:15 PM51.8 °F26.6 °F38 %30.19 in10.0 miCalmClear
5:35 PM50.0 °F28.4 °F43 %30.19 in10.0 miCalmClear
5:55 PM50.0 °F26.6 °F40 %30.19 in10.0 miCalmClear
6:15 PM48.2 °F26.6 °F43 %30.19 in10.0 miCalmClear
6:35 PM48.2 °F26.6 °F43 %30.19 in10.0 miCalmClear
6:55 PM48.2 °F26.6 °F43 %30.19 in10.0 miCalmClear
7:15 PM48.2 °F26.6 °F43 %30.19 in10.0 miCalmClear
7:35 PM48.2 °F24.8 °F40 %30.19 in10.0 miCalmClear
7:55 PM48.2 °F26.6 °F43 %30.19 in10.0 miCalmClear
8:10 PM48.2 °F26.6 °F43 %30.19 in10.0 miCalmClear
8:35 PM48.2 °F26.6 °F43 %30.19 in10.0 miCalmClear
8:55 PM50.0 °F26.6 °F40 %30.20 in10.0 miCalmClear
9:15 PM50.0 °F24.8 °F37 %30.20 in10.0 miCalmClear
9:35 PM50.0 °F24.8 °F37 %30.20 in10.0 miCalmClear
9:55 PM48.2 °F24.8 °F40 %30.20 in10.0 miCalmClear
10:15 PM50.0 °F24.8 °F37 %30.20 in10.0 miCalmClear
10:35 PM50.0 °F24.8 °F37 %30.20 in10.0 miCalmClear
10:55 PM50.0 °F24.8 °F37 %30.20 in10.0 miCalmClear
11:15 PM50.0 °F19.4 °F30 %30.20 in10.0 miCalmClear
11:35 PM50.0 °F15.8 °F26 %30.20 in10.0 miCalmClear
11:55 PM50.0 °F14.0 °F24 %30.20 in10.0 miCalmClear
Hourly data recorded from KGOO, located 3.68 miles away from Grass Valley, California







STORIES FROM OUR PARTNERS